SCP
-0 -0 -0 -0 -0 -0 -0 0 0 0 0 0 0 -0 -0 -0 -0 -0 -0 -0 -0 -0 -0 0 -0 -0 0 0 0 0 -0 -0 0 0 0 0 0 0 0 0 0 0 0 0 0 0 0
-0 -0 -0 -0 -0 0 -0 -0 0 0 0 0 -0 -0 -0 -0 -0 -0 -0 -0 -0 -0 -0 0 -0 -0 -0 0 0 0 0 0 0 0 0 0 0 0 0 0 0 0 0 0 0 0 0
-0 -0 -0 -0 -0 0 -0 -0 -0 -0 -0 -0 -0 -0 -0 -0 -0 -0 -0 -0 -0 -0 -0 -0 -0 0 0 0 0 0 0 0 0 0 0 0 0 0 0 0 0 0 0 0 0 0 0
-0 -0 -0 -0 -0 0 -0 -0 -0 -0 -0 -0 -0 -0 -0 -0 -0 -0 -0 -0 -0 0 0 0 -0 0 0 0 0 0 0 0 0 0 0 0 0 0 0 0 0 0 0 0 0 0 0
-0 -0 -0 -0 -0 0 -0 -0 0 0 0 0 0 -0 -0 -0 -0 -0 -0 -0 -0 -0 0 -0 0 0 -0 0 0 0 0 0 0 0 0 0 0 0 0 0 0 0 0 0 0 0 0
-0 -0 0 -0 -0 0 0 0 0 0 0 0 0 -0 -0 -0 -0 -0 -0 -0 -0 -0 -0 -0 -0 0 0 0 0 0 0 0 0 0 0 0 -0 0 0 0 0 0 0 0 0 0 0
0 0 0 0 0 0 0 0 0 0 0 0 0 -0 -0 0 0 -0 -0 0 0 0 0 0 0 0 0 0 -0 0 0 0 0 0 0 -0 0 0 -0 -0 -0 0 0 0 0 0 0
0 0 0 0 0 0 0 0 0 0 0 0 0 0 -0 0 0 -0 0 0 0 0 0 -0 -0 0 0 0 0 0 0 0 0 0 0 0 0 0 0 0 0 -0 0 0 0 0 0
0 0 0 0 0 0 0 0 0 0 0 0 0 0 -0 0 0 0 -0 0 -0 0 0 0 0 0 -0 0 0 0 0 0 0 0 0 0 0 0 0 -0 0 -0 0 0 0 0 0
0 0 0 0 0 0 0 0 0 0 0 0 0 0 0 0 0 0 0 -0 0 0 0 0 0 0 0 0 0 0 0 0 0 0 0 0 0 0 0 0 0 0 0 0 0 0 0
0 0 0 0 0 0 0 0 0 0 0 0 0 0 0 0 0 0 0 0 0 0 0 0 0 0 -0 0 0 0 0 0 0 0 0 0 0 0 0 0 0 0 0 0 0 0 0
0 0 0 0 0 0 0 0 0 0 0 0 0 0 0 0 0 0 0 0 0 0 0 0 0 0 0 0 0 0 0 0 0 0 0 0 0 0 0 0 0 0 0 0 0 0 0
0 0 0 0 0 0 0 0 0 0 0 0 0 0 0 0 0 0 0 0 0 0 0 0 0 0 0 0 0 0 0 0 0 0 0 0 0 0 0 0 0 0 0 -0 0 0 0
0 0 0 0 0 0 0 0 0 0 0 0 0 0 0 0 0 0 0 0 0 0 0 0 0 0 0 0 0 0 0 0 0 0 0 0 0 0 0 0 0 0 0 0 0 0 0
0 0 0 0 0 0 0 0 0 0 0 0 0 0 0 0 0 0 0 0 0 0 0 0 0 0 0 0 0 0 0 0 0 0 0 0 0 0 0 0 0 0 0 0 0 0 0
0 0 0 0 0 0 0 0 0 0 0 0 0 0 0 0 0 0 0 0 0 0 0 0 0 0 0 0 0 0 0 0 0 0 0 0 0 0 0 0 0 0 -0 -0 -0 0 0
0 0 0 0 0 0 0 0 0 0 0 0 0 0 0 0 0 0 0 0 0 0 0 0 0 0 0 0 0 0 0 0 0 0 0 0 0 0 0 0 0 -0 -0 0 0 0 0
0 0 0 0 0 0 0 0 0 0 0 0 0 0 0 0 0 0 0 0 0 0 0 0 0 0 0 0 0 0 0 0 0 0 0 0 0 0 0 0 0 0 0 0 0 0 0
0 0 0 0 0 0 0 0 0 0 0 0 0 0 0 0 0 0 0 0 0 0 0 0 0 0 0 0 0 0 0 0 0 0 0 0 0 0 0 -0 0 -0 0 0 0 0 0
0 0 0 0 0 0 0 0 0 0 0 0 0 0 0 0 0 0 0 0 0 0 0 0 0 0 0 0 0 0 0 0 0 0 0 0 0 0 0 0 0 -0 -0 0 0 0 0
0 0 0 0 0 0 0 0 0 0 0 0 0 0 0 0 0 0 0 0 0 0 0 0 0 0 0 0 0 0 0 0 0 0 0 0 0 0 -0 -0 -0 -0 -0 -0 0 0 0
0 0 0 0 0 0 0 0 0 0 0 0 0 0 0 0 0 0 0 0 0 0 0 0 0 0 0 0 0 0 0 0 0 0 0 0 0 0 -0 -0 -0 0 -0 0 0 0 0
0 0 0 0 0 0 0 0 0 0 0 0 0 0 0 0 0 0 0 0 0 0 0 0 0 0 0 0 0 0 0 0 0 0 0 0 0 0 0 -0 -0 0 0 0 0 0 0
0 0 0 0 0 0 0 0 0 0 0 0 0 0 0 0 0 0 0 0 0 0 0 0 0 0 0 0 0 0 0 0 0 0 0 0 0 -0 -0 0 0 0 0 0 0 0 0
0 0 0 0 0 0 0 0 0 0 0 0 0 0 0 0 0 0 0 0 0 0 0 0 0 0 0 0 0 0 0 0 0 0 0 0 0 -0 0 -0 -0 0 -0 0 0 0 0
0 0 0 0 0 0 0 0 0 0 0 0 0 0 0 0 0 0 0 0 0 0 0 0 0 0 0 0 0 0 0 0 0 0 0 0 0 -0 0 -0 -0 -0 0 0 0 0 0
0 0 0 0 0 0 0 0 -0 0 0 0 0 0 0 0 0 0 0 0 0 0 0 0 0 0 0 0 0 0 0 0 0 0 0 0 0 -0 -0 -0 -0 -0 0 0 0 0 0
0 0 0 0 0 0 0 0 0 0 0 0 0 0 0 0 0 0 0 0 0 0 0 0 0 0 0 0 0 0 0 0 0 0 0 0 0 -0 -0 -0 -0 0 0 -0 0 0 0
0 0 0 0 0 0 0 0 0 0 0 0 0 0 0 0 0 0 0 0 0 0 0 0 0 0 0 0 0 0 0 0 0 0 0 0 -0 -0 -0 0 0 -0 -0 0 0 0 0
Wind_Speed_500mb
7 6 5 6 5 3 6 4 3 6 13 18 21 22 21 20 19 21 22 23 25 25 19 17 26 27 18 28 22 38 37 33 32 29 33 34 30 18 8 14 27 5 16 39 42 40 40
10 9 8 7 4 4 4 4 5 8 14 18 21 21 19 18 17 18 20 23 22 20 16 11 14 37 34 23 32 35 39 35 31 30 32 33 20 20 11 9 7 25 28 35 34 49 36
14 12 10 10 8 5 4 7 7 10 14 18 18 16 17 14 15 18 19 20 16 18 16 15 6 8 41 27 30 35 40 36 29 26 28 25 23 19 19 12 17 24 13 15 7 24 11
15 14 11 12 12 8 10 11 10 11 15 16 15 15 13 13 13 15 18 15 10 16 14 14 9 16 12 29 22 34 41 28 15 22 26 20 17 14 8 23 17 10 6 11 23 17 16
17 16 14 14 12 9 9 10 9 11 14 15 14 13 11 10 12 14 18 11 8 14 19 13 9 10 9 23 31 37 47 43 23 23 13 13 9 8 12 9 8 11 9 18 15 23 11
20 18 17 17 16 11 10 10 7 8 12 13 12 9 7 10 12 16 16 4 8 23 6 7 18 10 26 32 21 45 48 22 22 27 10 12 7 6 8 11 5 17 14 11 20 13 36
24 22 20 19 16 14 13 14 13 10 10 11 10 6 5 8 12 17 16 4 3 4 33 19 13 8 20 34 13 41 54 19 18 15 12 12 9 4 11 5 9 12 12 20 28 29 18
28 25 22 21 17 16 14 14 13 10 9 8 7 3 3 5 11 18 18 11 12 7 13 18 13 10 15 27 15 46 52 21 15 9 20 12 3 7 12 9 12 16 17 19 19 14 23
33 29 26 22 19 17 16 15 13 10 7 6 3 2 2 4 8 12 22 20 10 11 7 9 15 11 16 16 11 30 41 17 9 8 9 6 13 19 8 13 13 13 11 12 25 29 22
36 34 31 26 23 20 18 17 14 12 8 6 4 4 3 4 3 11 14 18 7 7 9 15 12 13 18 12 5 30 33 12 10 9 12 10 11 12 16 15 5 12 10 23 33 22 13
37 39 34 29 26 23 19 18 18 13 8 7 8 7 3 3 4 7 10 15 2 2 9 9 9 12 9 12 14 28 24 9 7 10 4 12 12 21 20 6 8 20 23 30 31 30 14
46 44 37 33 30 27 22 20 22 16 11 11 11 9 5 1 4 9 13 10 3 11 5 9 10 16 10 16 11 22 16 22 4 9 4 15 22 7 8 7 10 16 19 29 5 1 5
59 52 44 37 34 31 27 23 22 19 15 15 13 10 7 3 3 9 14 5 10 12 8 12 6 10 3 11 11 16 9 13 9 14 12 16 12 9 6 14 11 21 9 8 11 5 11
70 62 55 46 39 37 33 27 25 23 19 19 16 13 9 5 1 9 14 9 12 5 10 3 5 4 8 13 7 15 7 10 10 8 5 9 19 10 7 4 9 11 3 5 10 7 23
83 73 65 57 48 43 38 32 28 26 23 23 19 15 11 7 3 6 5 9 14 13 8 4 3 13 10 8 5 12 10 6 3 7 5 9 12 11 25 8 7 10 4 13 10 6 9
80 78 77 68 59 52 46 39 34 30 28 27 22 15 13 12 6 3 8 6 6 7 8 6 7 6 3 9 7 9 5 6 5 7 5 5 17 10 12 13 3 8 5 8 6 10 11
89 92 86 78 72 63 55 48 42 35 33 31 24 10 10 15 8 1 6 10 7 8 7 6 9 6 7 4 1 3 8 9 4 7 8 5 8 14 12 2 7 10 7 4 7 9 8
95 88 94 87 85 75 67 58 50 43 41 39 23 3 13 20 4 5 6 11 10 11 7 5 9 7 10 8 1 4 7 10 6 4 1 3 7 12 16 27 18 9 3 3 6 9 10
100 79 96 115 88 87 78 70 62 54 56 52 20 10 17 23 6 2 3 1 9 9 8 8 8 7 7 9 4 5 7 10 10 5 4 3 6 12 19 11 5 6 14 10 16 13 13
90 82 76 80 76 88 92 79 73 67 61 56 20 4 7 13 7 12 9 6 6 13 10 9 8 10 7 3 5 5 6 7 9 7 11 1 6 13 11 20 16 21 32 38 16 7 10
79 87 78 85 84 83 78 87 87 79 72 63 21 12 17 6 9 11 9 13 10 10 9 17 1 10 11 5 3 6 7 8 8 10 3 3 9 6 25 41 34 36 37 38 29 22 7
77 74 80 84 69 85 87 84 96 90 82 58 24 16 15 11 19 17 8 13 18 6 16 10 9 13 14 12 16 13 10 7 9 5 4 3 8 8 14 8 11 22 30 23 20 14 21
84 69 79 84 92 89 90 81 95 95 102 52 39 30 17 17 15 10 10 12 18 22 19 8 23 9 15 28 32 26 17 13 11 8 8 5 5 9 12 18 26 6 7 9 11 13 16
86 74 72 78 81 87 81 82 88 107 111 87 76 41 16 4 7 11 12 18 16 24 12 13 21 12 6 7 9 8 4 10 17 14 15 3 6 5 10 16 7 8 6 7 10 24 11
87 87 81 80 86 85 85 93 100 115 104 82 80 62 29 7 22 10 19 12 13 21 7 15 17 11 11 2 6 12 9 12 7 7 12 16 3 6 5 3 17 12 4 6 2 7 13
86 88 92 78 83 85 93 80 87 97 110 107 85 76 43 28 21 24 17 19 8 7 5 7 11 16 9 8 8 7 6 7 9 14 5 9 8 2 6 2 8 9 2 11 10 7 26
70 89 88 87 83 81 82 99 85 101 120 111 91 89 52 17 20 45 14 19 21 14 6 9 14 11 16 4 5 6 6 6 5 7 9 4 5 12 6 8 17 20 15 5 7 9 38
52 73 89 82 83 84 84 80 99 85 100 106 81 89 65 18 40 42 34 21 27 23 9 22 11 4 6 5 7 7 6 9 1 7 10 13 12 8 5 5 15 3 6 4 9 22 32
54 58 85 78 86 70 76 68 63 98 114 121 74 79 66 19 20 35 39 25 28 29 21 43 3 14 23 7 0 6 2 3 5 6 5 6 13 9 18 12 17 10 13 26 15 21 25
Wind_Direction_500mb
277 277 267 282 297 285 293 289 292 337 344 345 343 342 343 343 341 352 356 2 9 24 40 71 68 43 67 63 26 12 8 5 11 15 17 17 27 6 5 344 334 233 345 324 313 312 303
260 266 268 270 272 286 304 256 286 322 334 338 340 342 342 344 348 354 357 2 8 23 49 112 88 48 61 64 19 11 8 7 15 21 25 23 5 341 296 312 317 312 297 296 308 304 290
253 255 264 260 253 258 266 265 278 307 325 336 342 356 345 351 351 355 357 3 26 22 38 90 133 36 45 40 16 10 18 18 15 26 26 23 5 358 330 315 315 292 313 317 311 348 299
255 250 251 249 251 257 270 258 271 309 327 335 340 354 350 352 352 359 355 8 45 33 70 73 39 58 70 12 20 6 12 24 16 0 349 350 351 334 307 308 320 326 19 2 318 342 309
254 248 243 243 262 259 276 249 267 311 327 335 340 348 350 348 354 359 357 3 58 44 80 50 41 77 33 356 14 14 5 350 15 19 29 359 334 336 333 339 353 17 311 319 313 310 298
247 247 246 248 249 251 258 240 269 310 326 331 335 339 350 347 353 2 359 17 112 43 128 62 49 92 14 349 2 4 4 4 4 13 19 14 15 45 16 38 328 301 307 283 287 296 304
243 241 241 242 249 256 257 251 258 292 319 327 328 324 354 353 0 8 18 141 59 42 61 63 42 67 349 360 25 8 5 7 17 29 18 347 46 338 304 294 248 261 273 282 285 280 294
241 239 237 237 242 244 258 258 256 274 304 314 319 304 351 354 18 22 30 71 59 105 85 50 33 38 4 5 1 15 10 30 16 354 359 8 316 219 302 311 303 290 293 289 288 283 300
243 237 235 234 238 244 248 256 246 257 284 293 279 222 296 352 22 22 36 49 48 129 96 33 29 6 7 360 11 356 4 353 0 336 346 202 261 321 328 318 320 300 258 280 287 311 286
248 241 234 231 232 234 238 243 236 248 253 254 207 190 257 345 359 11 27 19 25 139 80 322 354 16 351 347 341 8 357 4 354 315 347 273 292 324 313 302 270 292 273 292 297 318 307
242 243 234 232 230 232 231 233 224 235 238 233 200 191 222 30 25 25 2 357 355 157 54 305 334 350 26 43 330 2 1 352 331 291 30 265 295 325 322 289 307 264 284 286 285 285 295
229 236 233 230 227 228 230 228 224 223 222 213 203 190 189 325 15 7 353 353 133 43 274 339 346 360 16 11 12 337 8 11 306 335 238 263 290 239 236 296 270 292 318 307 357 219 260
231 228 230 225 226 225 225 226 223 220 216 203 200 195 195 210 332 345 347 335 36 101 330 311 337 2 28 347 342 11 5 21 40 8 349 325 298 296 9 332 325 17 3 332 348 3 224
232 228 228 223 224 225 222 222 223 214 208 200 198 195 204 215 295 339 343 49 74 222 230 316 358 343 64 2 354 340 22 21 25 76 308 345 334 11 23 265 283 314 122 276 294 288 292
233 226 227 224 221 223 221 219 220 215 201 199 195 197 206 214 259 336 333 53 193 196 189 158 60 61 323 339 14 10 14 345 56 56 100 330 271 304 306 279 112 289 340 277 267 243 267
233 229 226 225 221 222 218 216 217 212 201 198 193 196 207 209 226 337 71 208 167 185 146 100 119 123 248 291 24 41 348 282 352 87 61 273 294 266 289 321 114 203 320 333 3 299 294
231 232 228 223 223 220 220 216 214 206 200 190 185 189 205 194 187 105 148 210 212 190 165 119 164 135 221 230 175 293 253 289 356 350 8 2 202 291 350 309 313 338 332 12 272 239 291
234 230 228 227 221 220 218 215 214 202 192 187 180 139 182 174 113 45 144 180 163 161 166 106 114 124 171 185 172 265 258 231 12 63 38 237 285 282 274 287 280 223 84 296 249 314 269
250 235 234 234 219 218 216 215 215 204 200 182 175 150 175 179 139 256 307 220 183 151 181 154 165 171 172 175 28 202 264 276 305 46 59 269 308 310 336 355 28 337 304 269 291 267 241
234 237 234 240 231 230 218 215 215 206 201 187 165 105 147 201 164 136 141 213 195 197 154 162 165 146 95 32 212 252 261 288 324 313 317 234 239 201 222 257 301 296 297 304 298 262 301
234 233 236 230 234 224 223 231 216 207 195 185 176 191 169 192 224 166 145 151 153 170 186 183 206 191 170 166 318 239 252 291 318 355 86 63 263 222 256 262 275 271 279 292 297 295 277
230 227 226 230 233 228 225 227 219 209 186 184 174 157 156 155 139 133 180 217 175 209 157 214 195 193 180 180 189 206 179 220 236 10 38 348 274 302 293 287 247 269 285 274 303 290 271
228 224 224 225 225 233 225 233 217 215 188 184 202 173 165 160 148 128 208 191 199 161 203 182 193 149 198 233 235 254 257 252 245 248 289 269 300 349 271 322 312 347 241 277 303 272 297
227 228 224 224 228 220 216 219 226 218 205 201 194 177 136 190 185 196 173 170 172 199 149 178 177 159 191 198 288 279 284 272 242 235 207 224 304 294 278 338 11 242 258 268 260 287 344
226 227 227 224 220 223 224 224 232 216 209 214 206 191 173 156 184 162 157 127 161 178 116 151 188 182 162 9 43 14 342 17 326 273 230 220 236 286 300 240 291 308 50 328 4 294 347
227 221 226 222 225 223 229 227 230 229 213 211 206 195 183 130 212 165 145 167 158 142 64 171 174 181 163 81 71 143 239 210 302 337 257 201 215 154 5 11 242 243 5 321 151 281 357
223 220 220 220 219 222 220 224 216 222 213 211 194 200 189 141 162 174 160 182 182 144 120 152 159 162 174 95 94 162 255 183 271 174 192 211 200 221 248 272 283 258 290 151 34 310 336
218 218 219 219 220 220 225 228 234 219 211 211 199 204 194 161 165 186 174 170 165 172 149 148 105 196 67 99 133 214 149 218 135 227 184 175 156 201 152 223 278 246 10 60 279 314 329
218 211 207 220 215 217 216 211 214 219 205 203 188 192 188 166 164 185 185 201 196 187 169 170 183 156 170 94 249 100 209 52 168 265 176 254 196 181 190 218 247 265 290 280 293 325 336
Wind_Speed_850mb
7 6 5 6 5 3 6 4 3 6 13 18 21 22 21 20 19 21 22 23 25 25 19 17 26 27 18 28 22 38 37 33 32 29 33 34 30 18 8 14 27 5 16 39 42 40 40
10 9 8 7 4 4 4 4 5 8 14 18 21 21 19 18 17 18 20 23 22 20 16 11 14 37 34 23 32 35 39 35 31 30 32 33 20 20 11 9 7 25 28 35 34 49 36
14 12 10 10 8 5 4 7 7 10 14 18 18 16 17 14 15 18 19 20 16 18 16 15 6 8 41 27 30 35 40 36 29 26 28 25 23 19 19 12 17 24 13 15 7 24 11
15 14 11 12 12 8 10 11 10 11 15 16 15 15 13 13 13 15 18 15 10 16 14 14 9 16 12 29 22 34 41 28 15 22 26 20 17 14 8 23 17 10 6 11 23 17 16
17 16 14 14 12 9 9 10 9 11 14 15 14 13 11 10 12 14 18 11 8 14 19 13 9 10 9 23 31 37 47 43 23 23 13 13 9 8 12 9 8 11 9 18 15 23 11
20 18 17 17 16 11 10 10 7 8 12 13 12 9 7 10 12 16 16 4 8 23 6 7 18 10 26 32 21 45 48 22 22 27 10 12 7 6 8 11 5 17 14 11 20 13 36
24 22 20 19 16 14 13 14 13 10 10 11 10 6 5 8 12 17 16 4 3 4 33 19 13 8 20 34 13 41 54 19 18 15 12 12 9 4 11 5 9 12 12 20 28 29 18
28 25 22 21 17 16 14 14 13 10 9 8 7 3 3 5 11 18 18 11 12 7 13 18 13 10 15 27 15 46 52 21 15 9 20 12 3 7 12 9 12 16 17 19 19 14 23
33 29 26 22 19 17 16 15 13 10 7 6 3 2 2 4 8 12 22 20 10 11 7 9 15 11 16 16 11 30 41 17 9 8 9 6 13 19 8 13 13 13 11 12 25 29 22
36 34 31 26 23 20 18 17 14 12 8 6 4 4 3 4 3 11 14 18 7 7 9 15 12 13 18 12 5 30 33 12 10 9 12 10 11 12 16 15 5 12 10 23 33 22 13
37 39 34 29 26 23 19 18 18 13 8 7 8 7 3 3 4 7 10 15 2 2 9 9 9 12 9 12 14 28 24 9 7 10 4 12 12 21 20 6 8 20 23 30 31 30 14
46 44 37 33 30 27 22 20 22 16 11 11 11 9 5 1 4 9 13 10 3 11 5 9 10 16 10 16 11 22 16 22 4 9 4 15 22 7 8 7 10 16 19 29 5 1 5
59 52 44 37 34 31 27 23 22 19 15 15 13 10 7 3 3 9 14 5 10 12 8 12 6 10 3 11 11 16 9 13 9 14 12 16 12 9 6 14 11 21 9 8 11 5 11
70 62 55 46 39 37 33 27 25 23 19 19 16 13 9 5 1 9 14 9 12 5 10 3 5 4 8 13 7 15 7 10 10 8 5 9 19 10 7 4 9 11 3 5 10 7 23
83 73 65 57 48 43 38 32 28 26 23 23 19 15 11 7 3 6 5 9 14 13 8 4 3 13 10 8 5 12 10 6 3 7 5 9 12 11 25 8 7 10 4 13 10 6 9
80 78 77 68 59 52 46 39 34 30 28 27 22 15 13 12 6 3 8 6 6 7 8 6 7 6 3 9 7 9 5 6 5 7 5 5 17 10 12 13 3 8 5 8 6 10 11
89 92 86 78 72 63 55 48 42 35 33 31 24 10 10 15 8 1 6 10 7 8 7 6 9 6 7 4 1 3 8 9 4 7 8 5 8 14 12 2 7 10 7 4 7 9 8
95 88 94 87 85 75 67 58 50 43 41 39 23 3 13 20 4 5 6 11 10 11 7 5 9 7 10 8 1 4 7 10 6 4 1 3 7 12 16 27 18 9 3 3 6 9 10
100 79 96 115 88 87 78 70 62 54 56 52 20 10 17 23 6 2 3 1 9 9 8 8 8 7 7 9 4 5 7 10 10 5 4 3 6 12 19 11 5 6 14 10 16 13 13
90 82 76 80 76 88 92 79 73 67 61 56 20 4 7 13 7 12 9 6 6 13 10 9 8 10 7 3 5 5 6 7 9 7 11 1 6 13 11 20 16 21 32 38 16 7 10
79 87 78 85 84 83 78 87 87 79 72 63 21 12 17 6 9 11 9 13 10 10 9 17 1 10 11 5 3 6 7 8 8 10 3 3 9 6 25 41 34 36 37 38 29 22 7
77 74 80 84 69 85 87 84 96 90 82 58 24 16 15 11 19 17 8 13 18 6 16 10 9 13 14 12 16 13 10 7 9 5 4 3 8 8 14 8 11 22 30 23 20 14 21
84 69 79 84 92 89 90 81 95 95 102 52 39 30 17 17 15 10 10 12 18 22 19 8 23 9 15 28 32 26 17 13 11 8 8 5 5 9 12 18 26 6 7 9 11 13 16
86 74 72 78 81 87 81 82 88 107 111 87 76 41 16 4 7 11 12 18 16 24 12 13 21 12 6 7 9 8 4 10 17 14 15 3 6 5 10 16 7 8 6 7 10 24 11
87 87 81 80 86 85 85 93 100 115 104 82 80 62 29 7 22 10 19 12 13 21 7 15 17 11 11 2 6 12 9 12 7 7 12 16 3 6 5 3 17 12 4 6 2 7 13
86 88 92 78 83 85 93 80 87 97 110 107 85 76 43 28 21 24 17 19 8 7 5 7 11 16 9 8 8 7 6 7 9 14 5 9 8 2 6 2 8 9 2 11 10 7 26
70 89 88 87 83 81 82 99 85 101 120 111 91 89 52 17 20 45 14 19 21 14 6 9 14 11 16 4 5 6 6 6 5 7 9 4 5 12 6 8 17 20 15 5 7 9 38
52 73 89 82 83 84 84 80 99 85 100 106 81 89 65 18 40 42 34 21 27 23 9 22 11 4 6 5 7 7 6 9 1 7 10 13 12 8 5 5 15 3 6 4 9 22 32
54 58 85 78 86 70 76 68 63 98 114 121 74 79 66 19 20 35 39 25 28 29 21 43 3 14 23 7 0 6 2 3 5 6 5 6 13 9 18 12 17 10 13 26 15 21 25
Wind_Direction_850mb
277 277 267 282 297 285 293 289 292 337 344 345 343 342 343 343 341 352 356 2 9 24 40 71 68 43 67 63 26 12 8 5 11 15 17 17 27 6 5 344 334 233 345 324 313 312 303
260 266 268 270 272 286 304 256 286 322 334 338 340 342 342 344 348 354 357 2 8 23 49 112 88 48 61 64 19 11 8 7 15 21 25 23 5 341 296 312 317 312 297 296 308 304 290
253 255 264 260 253 258 266 265 278 307 325 336 342 356 345 351 351 355 357 3 26 22 38 90 133 36 45 40 16 10 18 18 15 26 26 23 5 358 330 315 315 292 313 317 311 348 299
255 250 251 249 251 257 270 258 271 309 327 335 340 354 350 352 352 359 355 8 45 33 70 73 39 58 70 12 20 6 12 24 16 0 349 350 351 334 307 308 320 326 19 2 318 342 309
254 248 243 243 262 259 276 249 267 311 327 335 340 348 350 348 354 359 357 3 58 44 80 50 41 77 33 356 14 14 5 350 15 19 29 359 334 336 333 339 353 17 311 319 313 310 298
247 247 246 248 249 251 258 240 269 310 326 331 335 339 350 347 353 2 359 17 112 43 128 62 49 92 14 349 2 4 4 4 4 13 19 14 15 45 16 38 328 301 307 283 287 296 304
243 241 241 242 249 256 257 251 258 292 319 327 328 324 354 353 0 8 18 141 59 42 61 63 42 67 349 360 25 8 5 7 17 29 18 347 46 338 304 294 248 261 273 282 285 280 294
241 239 237 237 242 244 258 258 256 274 304 314 319 304 351 354 18 22 30 71 59 105 85 50 33 38 4 5 1 15 10 30 16 354 359 8 316 219 302 311 303 290 293 289 288 283 300
243 237 235 234 238 244 248 256 246 257 284 293 279 222 296 352 22 22 36 49 48 129 96 33 29 6 7 360 11 356 4 353 0 336 346 202 261 321 328 318 320 300 258 280 287 311 286
248 241 234 231 232 234 238 243 236 248 253 254 207 190 257 345 359 11 27 19 25 139 80 322 354 16 351 347 341 8 357 4 354 315 347 273 292 324 313 302 270 292 273 292 297 318 307
242 243 234 232 230 232 231 233 224 235 238 233 200 191 222 30 25 25 2 357 355 157 54 305 334 350 26 43 330 2 1 352 331 291 30 265 295 325 322 289 307 264 284 286 285 285 295
229 236 233 230 227 228 230 228 224 223 222 213 203 190 189 325 15 7 353 353 133 43 274 339 346 360 16 11 12 337 8 11 306 335 238 263 290 239 236 296 270 292 318 307 357 219 260
231 228 230 225 226 225 225 226 223 220 216 203 200 195 195 210 332 345 347 335 36 101 330 311 337 2 28 347 342 11 5 21 40 8 349 325 298 296 9 332 325 17 3 332 348 3 224
232 228 228 223 224 225 222 222 223 214 208 200 198 195 204 215 295 339 343 49 74 222 230 316 358 343 64 2 354 340 22 21 25 76 308 345 334 11 23 265 283 314 122 276 294 288 292
233 226 227 224 221 223 221 219 220 215 201 199 195 197 206 214 259 336 333 53 193 196 189 158 60 61 323 339 14 10 14 345 56 56 100 330 271 304 306 279 112 289 340 277 267 243 267
233 229 226 225 221 222 218 216 217 212 201 198 193 196 207 209 226 337 71 208 167 185 146 100 119 123 248 291 24 41 348 282 352 87 61 273 294 266 289 321 114 203 320 333 3 299 294
231 232 228 223 223 220 220 216 214 206 200 190 185 189 205 194 187 105 148 210 212 190 165 119 164 135 221 230 175 293 253 289 356 350 8 2 202 291 350 309 313 338 332 12 272 239 291
234 230 228 227 221 220 218 215 214 202 192 187 180 139 182 174 113 45 144 180 163 161 166 106 114 124 171 185 172 265 258 231 12 63 38 237 285 282 274 287 280 223 84 296 249 314 269
250 235 234 234 219 218 216 215 215 204 200 182 175 150 175 179 139 256 307 220 183 151 181 154 165 171 172 175 28 202 264 276 305 46 59 269 308 310 336 355 28 337 304 269 291 267 241
234 237 234 240 231 230 218 215 215 206 201 187 165 105 147 201 164 136 141 213 195 197 154 162 165 146 95 32 212 252 261 288 324 313 317 234 239 201 222 257 301 296 297 304 298 262 301
234 233 236 230 234 224 223 231 216 207 195 185 176 191 169 192 224 166 145 151 153 170 186 183 206 191 170 166 318 239 252 291 318 355 86 63 263 222 256 262 275 271 279 292 297 295 277
230 227 226 230 233 228 225 227 219 209 186 184 174 157 156 155 139 133 180 217 175 209 157 214 195 193 180 180 189 206 179 220 236 10 38 348 274 302 293 287 247 269 285 274 303 290 271
228 224 224 225 225 233 225 233 217 215 188 184 202 173 165 160 148 128 208 191 199 161 203 182 193 149 198 233 235 254 257 252 245 248 289 269 300 349 271 322 312 347 241 277 303 272 297
227 228 224 224 228 220 216 219 226 218 205 201 194 177 136 190 185 196 173 170 172 199 149 178 177 159 191 198 288 279 284 272 242 235 207 224 304 294 278 338 11 242 258 268 260 287 344
226 227 227 224 220 223 224 224 232 216 209 214 206 191 173 156 184 162 157 127 161 178 116 151 188 182 162 9 43 14 342 17 326 273 230 220 236 286 300 240 291 308 50 328 4 294 347
227 221 226 222 225 223 229 227 230 229 213 211 206 195 183 130 212 165 145 167 158 142 64 171 174 181 163 81 71 143 239 210 302 337 257 201 215 154 5 11 242 243 5 321 151 281 357
223 220 220 220 219 222 220 224 216 222 213 211 194 200 189 141 162 174 160 182 182 144 120 152 159 162 174 95 94 162 255 183 271 174 192 211 200 221 248 272 283 258 290 151 34 310 336
218 218 219 219 220 220 225 228 234 219 211 211 199 204 194 161 165 186 174 170 165 172 149 148 105 196 67 99 133 214 149 218 135 227 184 175 156 201 152 223 278 246 10 60 279 314 329
218 211 207 220 215 217 216 211 214 219 205 203 188 192 188 166 164 185 185 201 196 187 169 170 183 156 170 94 249 100 209 52 168 265 176 254 196 181 190 218 247 265 290 280 293 325 336